Tracking 18980 objects as of 18-Feb-2018
HD Live streaming from Space Station
objects crossing your sky now

FENGYUN 1C DEB

Track FENGYUN 1C DEB now!
10-day predictions


NORAD ID: 30697
Int'l Code: 1999-025ARF
Perigee: 819.1 km
Apogee: 964.5 km
Inclination: 99.1 °
Period: 102.7 minutes
Semi major axis: 7262 km
RCS: 0.022 m2 (small)
Launch date: May 10, 1999
Source: People's Republic of China (PRC)
Launch site: Taiyaun Space Center, China (TSC)

Note: This is SATELLITE DEBRIS
aabbcc
Your satellite tracking list
Your tracking list is empty




NASA's NSSDC Master Catalog

Two Line Element Set (TLE):
1 30697U 99025ARF 18047.63557785 +.00000605 +00000-0 +40315-3 0  9993
2 30697 099.0999 085.1894 0100107 231.4535 255.8619 14.02653984561335
Source of the keplerian elements: AFSPC